Total_Precipitation_Accumulation
2.11 2.43 2.77 3.07 3.55 3.58 3.45 3.52 3.69 3.91 4.02 4.29 4.37 4.63 5.03 5.28 5.41 5.42 5.29 5.31 5.18 5.24 5.28 5.06 4.87 4.73 4.73 4.66 4.61 4.41 4.17 3.89 3.77 3.68 3.28 2.76 2.49 2.45 2.37 2.37 2.42 2.47 2.52
2.45 2.67 2.81 3.20 3.66 3.83 3.83 3.85 4.02 4.35 4.59 4.86 5.27 5.59 5.95 6.23 6.39 6.40 5.95 5.69 5.54 5.40 5.31 5.36 5.28 5.08 4.93 4.76 4.57 4.45 4.25 3.90 3.81 3.80 3.65 3.14 2.75 2.36 2.04 2.04 2.08 2.18 2.38
2.63 2.74 2.80 3.15 3.48 3.70 3.83 3.98 4.23 4.67 5.22 5.61 6.04 6.44 6.66 6.71 6.54 6.24 6.11 5.91 5.74 5.57 5.38 5.27 5.08 4.93 4.80 4.66 4.45 4.24 4.11 3.90 3.76 3.72 3.81 3.48 3.02 2.55 2.19 1.91 1.88 1.91 2.05
2.55 2.67 2.79 3.06 3.38 3.68 3.86 4.19 4.70 5.32 5.86 6.32 6.90 7.41 7.52 7.26 6.89 6.43 6.00 5.73 5.49 5.19 4.94 4.83 4.74 4.57 4.23 4.01 3.84 3.75 3.61 3.49 3.32 3.35 3.32 3.17 2.97 2.94 2.75 2.42 2.24 2.14 2.08
2.20 2.45 2.59 2.80 3.26 3.55 3.82 4.16 4.74 5.47 6.18 6.95 7.60 8.01 7.89 7.52 7.06 6.37 5.77 5.29 4.91 4.57 4.30 4.18 4.04 3.81 3.43 3.08 2.95 3.03 3.09 3.10 3.01 3.00 3.06 3.06 2.89 2.82 2.79 2.68 2.54 2.43 2.23
1.95 2.07 2.24 2.55 2.95 3.26 3.53 3.95 4.61 5.40 6.04 6.58 7.04 7.26 7.14 6.93 6.37 5.67 5.04 4.62 4.32 3.98 3.62 3.30 3.05 2.82 2.65 2.46 2.41 2.46 2.53 2.73 2.83 2.96 2.98 2.98 2.88 2.78 2.79 2.69 2.63 2.59 2.42
1.83 1.85 1.98 2.23 2.59 2.78 3.17 3.60 4.05 4.73 5.15 5.46 5.80 5.95 5.99 5.75 5.40 4.93 4.49 4.05 3.56 3.20 2.90 2.61 2.50 2.38 2.26 2.18 2.18 2.18 2.16 2.26 2.45 2.58 2.67 2.75 2.75 2.74 2.78 2.87 2.82 2.64 2.47
1.75 1.79 1.94 2.12 2.41 2.57 2.76 2.94 3.22 3.62 3.79 3.80 4.03 4.28 4.29 4.23 4.07 3.78 3.45 3.17 2.83 2.44 2.19 2.00 1.88 1.86 1.90 1.85 1.92 1.93 1.95 1.96 2.04 2.14 2.34 2.47 2.48 2.51 2.50 2.53 2.64 2.68 2.52
1.58 1.75 1.87 1.89 1.95 2.03 2.12 2.22 2.41 2.56 2.63 2.70 2.77 2.92 2.93 2.90 2.80 2.63 2.38 2.17 2.02 1.79 1.67 1.59 1.56 1.52 1.56 1.64 1.66 1.64 1.67 1.77 1.79 1.82 1.96 2.03 2.06 2.11 2.17 2.25 2.34 2.52 2.55
1.48 1.64 1.77 1.77 1.77 1.73 1.81 1.89 1.98 2.03 2.06 2.12 2.09 2.05 2.08 2.08 2.06 1.89 1.79 1.70 1.57 1.48 1.48 1.41 1.34 1.27 1.28 1.32 1.38 1.40 1.43 1.49 1.56 1.60 1.63 1.69 1.70 1.77 1.85 1.99 2.12 2.20 2.29
1.40 1.54 1.55 1.56 1.56 1.54 1.60 1.67 1.67 1.67 1.67 1.66 1.65 1.61 1.56 1.58 1.63 1.62 1.53 1.46 1.37 1.24 1.21 1.11 1.04 1.01 1.05 1.12 1.21 1.25 1.30 1.35 1.41 1.48 1.48 1.51 1.51 1.58 1.60 1.63 1.71 1.88 1.99
1.45 1.47 1.42 1.39 1.38 1.40 1.44 1.49 1.44 1.41 1.46 1.40 1.34 1.34 1.33 1.33 1.36 1.36 1.24 1.19 1.21 1.12 1.06 0.94 0.88 0.86 0.89 0.96 1.02 1.06 1.10 1.21 1.24 1.25 1.28 1.29 1.33 1.37 1.38 1.42 1.46 1.55 1.68
1.81 1.67 1.50 1.48 1.44 1.40 1.33 1.23 1.23 1.23 1.27 1.26 1.23 1.19 1.19 1.19 1.20 1.19 1.16 1.11 1.12 1.10 1.01 0.90 0.85 0.83 0.83 0.84 0.89 0.94 0.93 0.96 1.03 1.07 1.14 1.16 1.21 1.18 1.12 1.18 1.27 1.33 1.40
2.03 1.81 1.59 1.53 1.49 1.40 1.33 1.26 1.24 1.16 1.13 1.15 1.14 1.14 1.12 1.12 1.10 1.13 1.19 1.16 1.07 1.00 0.93 0.87 0.82 0.79 0.77 0.78 0.80 0.78 0.81 0.86 0.91 0.93 0.97 1.00 1.04 1.06 1.09 1.11 1.24 1.30 1.41
1.97 1.85 1.73 1.64 1.56 1.44 1.37 1.27 1.20 1.11 1.07 1.03 1.03 1.04 1.02 1.00 0.98 1.03 1.07 1.10 1.07 0.99 0.94 0.87 0.80 0.71 0.65 0.64 0.66 0.67 0.70 0.79 0.80 0.84 0.83 0.82 0.87 0.96 0.97 0.95 1.06 1.20 1.36
2.10 1.97 1.83 1.71 1.67 1.55 1.48 1.39 1.30 1.24 1.14 1.06 1.06 1.04 1.03 0.98 0.96 0.96 0.99 0.96 0.92 0.91 0.88 0.81 0.74 0.66 0.56 0.59 0.60 0.59 0.64 0.74 0.78 0.77 0.75 0.71 0.70 0.77 0.84 0.85 0.92 1.05 1.17
2.17 2.03 1.97 1.93 1.86 1.79 1.68 1.53 1.38 1.31 1.11 0.99 0.97 0.97 0.96 0.92 0.90 0.85 0.85 0.86 0.93 0.93 0.86 0.78 0.74 0.73 0.66 0.52 0.45 0.48 0.57 0.72 0.73 0.72 0.76 0.70 0.65 0.74 0.78 0.81 0.80 0.84 0.86
2.34 2.20 2.06 1.98 1.91 1.80 1.67 1.48 1.28 1.13 0.97 0.89 0.89 0.86 0.83 0.83 0.86 0.80 0.79 0.83 0.88 0.87 0.87 0.85 0.86 0.87 0.72 0.52 0.39 0.44 0.59 0.68 0.62 0.62 0.71 0.77 0.80 0.75 0.74 0.76 0.80 0.83 0.83
2.34 2.21 2.04 1.94 1.83 1.61 1.44 1.32 1.13 1.01 0.93 0.85 0.84 0.76 0.71 0.78 0.80 0.76 0.76 0.82 0.80 0.80 0.80 0.82 0.90 0.92 0.78 0.59 0.46 0.47 0.59 0.66 0.64 0.63 0.61 0.63 0.70 0.69 0.73 0.81 0.95 0.99 0.99
2.05 2.00 1.84 1.72 1.64 1.44 1.25 1.18 1.06 0.94 0.90 0.83 0.80 0.74 0.73 0.76 0.80 0.81 0.80 0.74 0.75 0.73 0.68 0.74 0.83 0.84 0.76 0.58 0.46 0.46 0.50 0.60 0.71 0.77 0.75 0.70 0.66 0.64 0.69 0.84 1.00 1.07 1.07
1.70 1.69 1.61 1.58 1.46 1.26 1.18 1.21 1.16 1.01 0.84 0.74 0.73 0.75 0.77 0.73 0.70 0.74 0.76 0.74 0.67 0.69 0.68 0.69 0.76 0.80 0.66 0.52 0.45 0.50 0.54 0.60 0.70 0.78 0.83 0.77 0.71 0.67 0.67 0.73 0.88 0.99 1.01
1.37 1.46 1.53 1.48 1.35 1.23 1.20 1.21 1.17 0.97 0.83 0.80 0.82 0.78 0.72 0.60 0.57 0.68 0.71 0.69 0.69 0.71 0.74 0.75 0.78 0.74 0.59 0.47 0.43 0.49 0.54 0.56 0.65 0.78 0.75 0.72 0.70 0.66 0.69 0.72 0.82 0.90 1.05
1.22 1.26 1.33 1.33 1.27 1.18 1.18 1.17 1.06 0.88 0.83 0.90 0.87 0.81 0.69 0.61 0.60 0.65 0.67 0.65 0.66 0.63 0.61 0.63 0.68 0.65 0.56 0.50 0.44 0.45 0.47 0.48 0.54 0.65 0.67 0.66 0.64 0.67 0.78 0.84 0.90 1.02 1.24
1.09 1.15 1.21 1.21 1.17 1.07 1.04 1.05 0.94 0.89 0.92 0.91 0.83 0.79 0.72 0.64 0.58 0.57 0.54 0.58 0.60 0.59 0.59 0.56 0.58 0.55 0.51 0.45 0.40 0.41 0.42 0.42 0.45 0.53 0.63 0.72 0.77 0.84 0.97 1.10 1.19 1.21 1.26
1.00 1.03 1.14 1.14 1.00 0.90 0.85 0.82 0.86 0.92 0.96 0.88 0.74 0.68 0.63 0.60 0.59 0.53 0.47 0.48 0.51 0.52 0.51 0.47 0.42 0.42 0.40 0.35 0.38 0.39 0.39 0.40 0.42 0.47 0.61 0.83 0.96 1.06 1.10 1.14 1.21 1.21 1.13
0.91 0.97 0.98 0.97 0.87 0.77 0.75 0.71 0.75 0.81 0.81 0.75 0.65 0.56 0.50 0.49 0.43 0.44 0.42 0.39 0.38 0.39 0.41 0.40 0.34 0.30 0.31 0.32 0.33 0.34 0.34 0.37 0.42 0.48 0.67 0.85 0.94 1.02 1.08 1.09 1.09 1.06 1.01